Theta_e
293 294 293 293 293 294 295 295 295 295 295 296 297 297 298 297 298 299 296 297 297 297 297 298 298 298 298 298 299 299 299 300 300 301 301 302 303 303 303 303 302 302 302 300 299 299 299 299 299 299 299 298 298 298 297 297 296 296 296 295 294 294 293 292 292 292 293 287 286 286 286 286 284 285 284 284 284 285 285 284 284 284 283 284 288
293 293 293 293 293 293 293 292 293 293 293 293 294 294 295 295 295 293 295 297 295 297 297 298 297 297 297 298 298 298 298 299 299 299 300 301 301 302 302 300 299 299 299 299 298 298 298 297 298 298 298 298 298 297 297 296 296 295 295 294 294 294 293 292 291 291 292 288 285 284 284 285 284 286 283 284 283 284 284 283 283 283 283 283 285
291 291 292 292 292 290 290 291 290 290 291 292 291 292 292 292 292 293 294 295 293 295 296 296 296 296 296 296 297 297 298 297 297 297 297 298 298 299 300 299 298 298 298 298 298 298 297 296 297 297 298 297 297 297 297 296 296 295 295 294 293 293 293 292 291 290 291 292 290 285 284 284 285 285 285 284 284 283 283 282 282 283 283 283 284
289 289 289 290 289 290 290 289 290 289 290 291 291 291 291 291 290 291 292 292 292 293 293 294 294 294 294 295 295 295 295 295 295 295 297 297 297 297 297 297 297 298 298 298 298 298 297 297 297 297 296 296 297 297 297 296 295 295 294 294 293 293 293 292 291 291 292 291 289 285 285 283 284 285 284 284 283 283 282 282 282 282 283 283 283
289 289 289 290 290 290 290 289 289 289 289 289 289 290 290 290 290 290 291 291 292 292 292 291 292 293 294 294 294 294 294 295 294 295 295 296 296 296 297 297 297 297 297 298 295 298 297 297 297 297 297 296 296 296 296 295 295 294 293 294 293 293 292 292 291 291 290 289 290 285 284 283 284 284 284 282 282 282 282 281 281 282 282 282 283
288 289 289 290 290 289 289 289 289 289 289 289 289 289 289 289 290 290 290 291 291 291 291 291 291 292 293 293 293 294 294 294 294 295 295 295 295 295 295 296 296 296 297 297 297 297 297 297 297 297 297 296 296 296 296 295 295 294 293 294 293 293 292 291 291 290 289 289 289 284 283 282 282 282 283 283 281 280 280 281 281 281 281 281 282
289 289 289 289 289 289 289 289 289 289 289 289 289 289 289 289 289 289 289 289 290 290 290 291 291 291 292 292 292 293 293 294 294 294 294 295 295 295 295 295 295 295 296 296 296 297 297 297 297 297 297 296 296 296 296 295 295 294 294 294 293 292 291 291 290 289 288 288 288 286 283 282 282 281 282 283 282 281 280 279 278 280 281 281 280
289 289 289 289 289 289 288 288 288 288 288 288 289 289 289 289 289 289 288 289 289 289 290 290 291 291 291 291 292 292 292 293 293 294 294 294 294 294 295 294 294 295 295 295 295 296 296 297 297 297 297 297 297 297 296 295 295 294 294 293 293 292 291 290 289 288 287 287 287 285 283 282 281 282 282 281 280 280 281 279 278 278 279 281 281
288 289 289 289 289 288 288 288 288 288 288 288 288 289 289 289 288 288 288 289 289 289 289 289 290 290 291 291 291 291 291 292 293 293 293 293 294 294 294 294 294 294 294 294 295 295 295 296 296 297 296 293 293 294 295 295 296 294 294 293 292 291 290 290 289 288 287 286 286 286 283 281 280 279 279 279 278 278 280 281 279 279 279 279 280
287 288 288 288 288 288 288 288 288 288 289 289 289 288 289 288 288 288 288 288 288 289 288 289 289 289 289 290 290 291 291 292 290 291 292 293 293 294 294 294 294 294 293 293 294 295 295 296 295 291 291 291 291 292 293 293 293 295 295 294 292 290 290 289 289 288 287 286 286 285 282 281 280 280 279 280 280 281 280 280 279 279 279 279 278
287 287 288 287 287 288 288 288 287 288 288 288 288 288 288 288 288 288 288 288 288 288 288 288 288 289 289 289 290 290 291 291 290 292 293 294 293 293 293 293 294 294 294 293 293 294 295 295 295 293 291 290 291 291 292 292 293 293 293 293 293 292 290 289 288 288 287 286 286 285 283 282 282 281 281 281 281 281 280 281 281 279 277 276 275
287 287 287 287 287 287 287 287 287 287 287 287 287 287 287 287 287 287 288 288 288 288 288 288 288 289 289 289 289 289 290 290 292 292 293 294 293 293 293 293 293 293 293 293 294 294 294 294 295 295 295 294 294 293 292 291 292 292 292 292 292 292 292 291 290 288 287 286 286 286 285 283 283 282 281 281 281 282 282 282 282 279 279 278 279
286 287 287 287 287 287 286 286 286 286 287 286 286 286 286 286 286 286 287 287 287 287 288 288 288 288 288 288 289 289 289 290 291 292 292 293 294 293 294 293 293 292 293 293 293 293 293 293 293 294 295 290 290 292 293 292 290 291 291 291 291 292 293 293 292 290 290 288 287 286 286 285 283 282 282 282 283 281 282 281 282 280 280 280 281
285 286 286 286 286 286 286 286 286 286 286 286 286 285 285 286 286 286 286 286 286 287 287 287 288 288 288 288 289 289 289 289 291 292 292 292 293 293 293 292 292 292 293 293 293 293 293 293 292 293 294 293 293 292 291 291 291 291 290 290 290 290 290 291 291 291 290 289 288 287 287 286 285 284 284 285 283 282 281 280 281 280 280 280 282
286 286 286 286 286 286 285 285 285 285 285 285 285 285 285 285 285 286 286 286 286 286 287 287 287 287 288 287 288 288 289 290 291 291 292 292 293 293 293 292 292 292 292 292 293 293 293 293 293 293 293 292 292 291 290 290 289 289 289 288 289 289 289 289 289 290 290 289 289 289 288 287 287 286 285 285 284 284 283 282 282 281 281 280 278
285 285 285 285 285 285 285 285 285 285 285 284 284 285 285 285 285 286 285 286 286 286 286 286 286 286 287 286 287 287 289 290 290 291 292 292 293 291 291 290 290 291 291 292 292 293 293 293 292 292 292 292 291 291 291 290 288 288 288 288 288 288 288 289 290 290 290 289 289 288 288 287 288 286 285 285 285 284 284 282 282 280 278 278 276
285 285 285 285 285 285 285 284 284 284 284 284 284 284 284 285 285 285 285 285 285 286 286 286 286 286 286 286 286 287 288 288 290 290 291 292 291 290 289 289 289 289 290 291 291 292 292 292 292 292 292 291 291 292 292 290 288 287 287 287 287 287 287 288 289 290 290 290 290 290 290 290 290 289 288 287 285 284 281 280 278 279 277 276 275
285 284 284 284 284 284 284 284 283 283 283 283 283 284 284 284 284 284 284 284 284 285 285 285 286 286 285 286 286 286 287 287 289 290 290 291 290 288 288 288 288 288 289 290 290 291 291 288 289 291 291 291 291 292 292 290 288 287 286 286 286 286 286 286 285 286 289 289 289 289 289 289 289 289 288 288 287 285 281 279 279 279 278 277 275
283 283 283 284 284 284 283 283 282 282 282 282 282 282 283 283 284 284 284 284 284 285 285 285 285 285 286 285 285 285 286 286 288 289 290 290 290 288 288 288 287 288 288 288 289 290 290 289 288 288 290 290 291 292 292 290 288 287 287 286 285 285 286 285 284 284 285 285 285 286 286 287 287 286 286 287 286 284 283 282 280 279 278 278 277
283 283 283 283 283 282 282 281 281 281 281 282 282 282 283 283 283 283 283 283 283 284 284 284 283 284 285 285 285 286 286 286 287 288 289 289 290 288 288 287 287 287 287 288 288 288 289 289 290 290 291 291 291 292 292 292 289 287 287 286 285 285 287 285 284 284 284 284 284 285 285 286 285 285 285 285 284 283 283 283 281 281 280 279 277
282 282 282 282 281 281 281 281 280 281 281 281 282 282 282 282 282 282 282 282 282 282 282 282 283 283 284 285 285 285 285 285 286 287 288 289 290 289 287 287 287 287 287 287 287 287 288 289 289 290 291 291 291 291 291 291 291 288 287 286 286 287 287 285 284 284 284 284 284 284 284 285 284 284 284 284 283 282 283 283 282 283 282 279 277
281 280 280 280 280 280 279 280 280 280 280 280 280 280 281 281 281 281 281 281 280 280 281 282 282 283 284 284 285 285 285 285 285 286 287 288 289 289 287 287 287 287 286 286 287 287 288 288 288 289 290 290 290 291 291 291 291 289 288 289 289 289 287 285 284 284 283 283 283 282 282 282 282 282 282 282 282 282 282 282 282 282 283 281 280
279 279 279 279 279 279 279 279 279 279 279 279 279 279 280 280 280 280 280 280 280 280 280 281 281 282 283 284 285 285 285 285 285 285 286 287 288 288 289 288 289 288 287 286 286 287 288 288 288 288 289 289 289 290 291 291 290 289 290 290 289 289 287 285 283 283 282 282 281 280 280 281 280 280 281 281 281 281 281 281 281 281 280 280 281
279 279 279 279 278 278 278 278 278 278 278 278 278 278 278 279 279 280 280 280 280 280 281 281 281 281 281 283 284 285 285 286 285 285 285 286 287 288 288 289 289 287 287 286 287 287 287 287 287 288 288 288 289 289 290 289 288 289 290 289 288 287 286 284 283 282 281 281 280 280 280 280 281 280 280 280 280 280 280 280 279 278 277 276 276
278 278 278 278 277 277 276 276 276 277 277 277 277 277 277 278 278 279 279 279 279 279 280 280 280 281 281 281 283 284 285 285 285 285 285 285 286 287 287 288 288 288 286 287 287 287 287 288 288 288 288 288 288 289 288 288 289 289 289 288 287 286 285 284 282 281 280 279 279 280 280 280 281 281 281 280 280 279 277 275 274 272 271 271 270
278 278 277 276 276 275 275 275 276 276 276 276 276 276 276 276 277 277 278 278 279 279 279 280 280 280 281 281 282 283 284 284 284 285 284 283 283 285 286 286 286 286 285 286 286 286 287 287 287 287 287 287 287 286 286 286 287 287 287 286 286 285 285 283 282 281 280 280 280 279 280 280 280 281 280 279 277 275 274 271 271 271 273 272 270
276 275 274 274 274 275 275 275 275 275 275 274 275 275 275 275 276 276 277 277 277 278 279 279 279 280 280 281 281 282 282 283 283 284 284 282 281 281 281 282 283 283 283 284 283 284 284 285 285 286 286 287 286 286 285 285 285 285 286 286 286 285 285 283 282 281 281 280 280 280 280 280 280 277 277 277 276 274 274 274 272 272 273 272 269
273 272 272 273 273 274 274 274 273 272 272 272 272 273 274 275 275 275 275 276 276 277 277 278 278 279 279 280 280 281 281 282 283 283 283 284 283 282 283 282 282 283 283 282 283 283 283 284 285 285 285 285 285 285 284 285 285 284 285 285 285 285 285 284 283 282 282 282 281 281 280 278 276 277 277 276 274 274 274 274 273 272 272 271 268
271 271 271 272 272 272 271 270 270 270 270 270 271 272 272 273 274 274 276 277 277 277 277 278 279 279 280 280 280 280 281 281 282 285 284 285 285 285 285 285 285 284 283 285 284 284 284 283 283 283 283 282 282 282 283 283 283 284 284 284 285 285 284 283 281 281 281 281 280 279 278 277 277 277 276 274 273 273 274 273 273 272 272 272 269
269 269 270 270 269 269 268 268 269 269 269 269 270 271 274 276 276 275 275 278 279 281 281 279 280 280 280 281 282 281 280 282 285 285 286 286 286 287 287 287 287 287 287 287 286 284 283 282 282 282 282 281 281 281 281 282 282 282 283 283 284 284 284 283 282 281 281 281 280 278 277 277 276 276 275 273 273 273 274 274 272 272 271 270 266
268 268 268 267 267 267 267 267 268 268 268 269 269 270 270 272 276 277 277 277 278 280 281 282 282 283 282 281 282 284 285 285 285 286 286 286 286 287 287 287 287 287 288 286 284 283 282 282 281 281 281 281 280 281 281 281 281 281 282 283 283 283 283 282 282 282 281 280 279 278 277 276 276 275 274 273 272 272 273 273 273 273 272 270 266
266 265 265 265 265 265 266 266 267 267 268 268 269 269 269 269 270 274 276 277 278 279 280 280 281 282 283 283 282 282 284 284 285 285 286 286 286 286 287 287 287 287 287 287 284 283 283 282 281 281 281 280 280 281 281 281 281 281 282 282 282 283 282 282 282 281 281 279 278 277 277 276 276 275 274 273 273 272 272 272 272 272 272 271 269
262 262 262 263 263 264 264 265 266 266 266 267 267 267 267 268 268 269 272 275 276 277 278 279 281 281 282 283 283 283 283 284 284 285 285 285 286 286 287 287 287 287 287 285 283 282 282 282 281 281 281 280 280 280 281 281 281 281 282 282 282 282 282 282 282 281 280 279 278 277 277 276 276 275 274 273 272 271 271 271 272 272 272 270 268
260 261 261 262 262 262 263 264 264 265 265 266 266 267 267 268 268 268 269 270 272 275 277 279 280 281 282 282 282 282 283 283 283 284 285 285 286 286 286 286 287 287 286 284 283 282 282 282 281 281 281 281 280 280 280 281 281 281 281 282 283 282 282 281 281 280 279 279 278 277 277 276 275 274 273 273 273 272 271 271 272 271 271 269 267
259 260 261 262 261 262 262 263 263 264 265 265 265 266 266 267 268 269 269 269 270 271 272 274 278 280 280 280 281 281 282 282 283 284 284 285 285 286 286 284 283 283 284 284 283 282 282 282 281 281 281 280 280 280 280 281 281 281 281 282 281 281 280 280 280 279 279 278 277 276 276 275 275 274 273 272 272 271 271 271 271 271 270 269 267
258 259 259 260 261 261 262 262 263 264 264 264 265 266 267 268 268 269 270 271 271 271 272 274 276 279 280 280 280 281 282 282 283 284 284 285 285 285 282 281 282 282 282 282 282 282 282 282 282 282 281 281 281 280 281 281 281 282 282 281 280 279 279 279 278 278 278 277 276 276 276 275 274 274 273 272 272 271 271 270 270 270 269 268 267
258 258 259 260 260 261 262 262 263 264 265 265 266 266 267 268 269 269 270 270 271 272 273 274 275 276 277 278 279 280 282 282 283 283 284 284 285 284 282 282 282 282 281 281 282 282 281 282 282 282 281 280 280 280 281 281 281 282 281 280 279 279 279 278 277 277 276 276 276 275 275 274 274 273 273 272 272 271 270 269 269 268 268 267 265
258 259 259 260 261 261 261 262 263 264 264 265 266 266 266 267 268 268 269 270 271 271 271 272 274 273 274 275 279 280 280 281 282 282 283 283 282 282 282 282 282 281 281 282 282 281 281 282 281 280 280 280 280 280 280 280 280 280 279 279 279 278 278 278 277 276 276 275 275 275 274 273 273 273 272 271 270 269 268 268 268 267 266 266 265
259 260 261 261 261 261 261 262 262 263 264 264 265 265 266 266 267 268 268 269 270 271 271 272 273 274 275 277 278 280 280 279 279 278 279 280 281 281 281 281 281 281 281 281 281 281 281 280 280 280 280 280 279 279 279 278 278 278 278 278 278 278 277 276 276 275 275 274 274 274 274 273 273 272 272 271 269 268 268 267 267 266 266 266 265
258 259 259 261 260 261 261 262 262 263 263 263 264 265 266 266 266 267 268 269 269 270 271 272 273 274 276 277 278 278 277 277 278 278 278 279 280 280 281 280 280 280 280 280 280 280 280 279 279 279 279 279 279 278 278 277 277 277 277 277 277 276 276 276 275 274 274 274 273 273 272 272 272 271 271 270 269 268 267 267 266 266 266 265 264
258 259 260 260 261 261 261 262 262 262 263 264 264 265 265 266 267 268 268 269 270 271 272 272 273 275 276 277 279 279 277 277 278 278 278 278 278 277 277 277 278 278 279 279 279 279 278 278 278 278 277 277 277 277 276 276 276 276 276 275 276 275 275 275 275 274 273 272 272 271 271 271 270 270 269 268 268 268 267 266 266 265 264 263 262
257 258 259 260 261 261 261 261 262 263 263 264 264 265 265 266 267 269 270 270 270 271 271 272 274 275 276 277 278 278 277 277 276 274 274 273 272 272 272 272 273 274 275 276 277 277 277 276 276 276 275 275 275 275 275 275 275 275 275 275 274 273 273 273 273 272 272 272 271 271 270 270 270 269 268 268 267 266 266 265 265 264 263 262 262
258 259 260 260 260 261 261 261 262 262 263 264 265 266 267 268 268 269 269 269 270 271 272 272 273 274 275 276 275 275 273 272 271 270 270 269 269 268 268 269 269 270 271 272 274 275 275 275 274 273 274 274 274 274 275 275 275 274 274 274 273 272 271 271 270 271 271 270 270 269 269 269 269 268 267 267 266 266 265 264 263 263 262 261 261
259 260 260 260 261 261 262 262 263 263 264 265 266 266 267 267 268 268 268 269 269 270 270 271 272 272 272 272 271 270 269 269 268 267 267 266 266 266 266 266 267 268 268 269 270 271 271 271 270 270 270 271 272 272 272 273 274 274 273 272 271 270 270 270 270 270 270 269 268 268 268 268 267 267 266 266 266 264 263 262 262 261 261 261 260
259 259 259 260 260 261 261 262 263 263 264 264 264 265 266 266 266 267 267 267 268 268 269 269 269 269 269 268 268 267 267 266 265 265 264 264 263 263 264 264 265 265 266 267 267 268 269 268 268 268 267 267 268 269 270 270 271 272 272 271 270 269 270 270 270 270 269 269 268 267 267 267 267 266 265 265 264 263 262 262 261 260 260 260 260
258 258 259 259 260 260 261 261 262 261 262 262 262 263 263 264 265 265 265 266 266 266 266 267 266 266 266 265 265 265 264 264 263 263 263 262 262 262 263 263 264 264 264 265 265 266 266 266 266 266 265 265 266 266 266 266 267 268 269 270 270 270 269 269 269 269 269 268 268 267 266 266 265 264 263 264 263 263 262 261 261 261 260 259 260
257 258 258 259 259 260 260 260 260 260 260 261 261 261 262 262 263 264 264 264 264 264 264 264 264 264 264 263 263 263 262 262 262 261 261 261 262 262 262 262 262 263 263 263 264 265 265 265 265 265 264 264 265 264 264 264 264 265 265 267 267 267 268 268 268 268 268 267 267 266 265 264 263 262 262 262 262 261 261 261 261 260 259 259 258
256 257 258 258 259 259 259 259 259 260 260 260 260 260 261 261 261 262 262 262 262 262 262 262 262 262 262 262 262 262 261 261 261 261 261 261 261 261 261 261 261 261 262 262 262 262 263 264 264 264 264 264 264 263 262 260 261 262 263 264 265 265 264 264 266 266 266 266 266 265 264 263 262 262 262 262 261 260 260 259 258 258 258 257 257
256 257 257 257 258 258 258 258 258 258 258 259 259 259 260 260 260 260 261 261 261 261 261 261 261 261 261 261 261 261 261 260 260 260 260 260 260 260 260 260 260 260 260 260 260 260 260 261 262 262 262 262 262 262 261 260 259 260 261 262 262 262 261 262 262 263 262 264 264 263 263 262 261 261 260 260 260 260 259 258 257 256 255 255 256
256 256 257 257 257 257 257 258 258 258 259 259 258 258 259 259 259 259 259 259 259 260 260 260 260 260 260 260 260 260 260 260 259 260 259 259 259 260 260 259 259 259 259 258 258 259 259 259 259 260 260 261 261 261 261 261 261 261 261 262 262 261 261 261 261 261 262 263 263 262 261 260 259 259 259 259 258 257 256 256 255 255 254 254 254
255 256 256 256 256 257 256 256 257 257 257 258 258 258 258 258 258 258 259 258 258 258 259 259 259 259 259 259 259 259 259 259 259 259 259 258 258 259 259 258 257 257 257 257 257 257 257 258 258 259 260 260 260 261 262 262 262 262 262 261 261 261 261 260 260 259 260 260 261 260 259 259 258 257 257 257 257 256 255 254 254 254 253 253 253
Wind_Speed
5 4 2 2 2 4 5 5 5 4 3 3 4 5 5 5 5 6 3 6 5 6 7 7 7 8 8 8 9 9 9 8 8 8 9 10 10 10 9 9 11 10 9 10 9 10 11 12 12 12 10 12 10 10 11 12 12 12 11 11 12 11 12 14 17 20 10 3 4 5 6 9 8 11 11 10 10 10 12 11 12 12 11 10 10
7 6 4 3 3 3 5 4 3 3 3 3 4 5 5 5 6 4 6 7 5 6 7 6 6 7 8 9 8 9 9 9 8 8 9 11 11 9 9 9 11 11 9 11 9 9 10 11 12 11 10 12 11 12 11 11 11 12 12 12 13 12 12 12 15 14 20 4 5 3 5 8 8 8 12 11 10 8 10 10 9 10 10 9 9
7 6 6 6 6 5 5 6 6 5 5 5 5 6 6 6 5 6 6 6 5 5 7 6 7 7 8 9 9 9 9 9 7 8 10 11 11 10 10 10 11 11 11 11 10 9 10 10 11 10 9 11 12 12 11 12 11 13 14 12 13 13 12 15 13 15 17 16 7 7 7 7 9 7 11 10 10 11 11 11 11 9 8 10 9
9 8 7 6 6 7 7 6 7 6 6 5 6 7 6 6 5 5 6 6 6 6 6 7 7 7 8 8 8 8 8 8 8 9 11 11 11 11 10 10 11 11 12 12 11 10 11 11 11 10 10 12 12 11 11 11 11 12 13 12 12 14 12 13 15 14 14 15 7 8 5 6 6 5 8 9 10 11 11 10 8 8 6 8 7
8 7 5 5 7 7 7 7 7 6 6 5 6 6 6 6 5 6 6 6 6 6 6 6 7 7 8 8 8 8 8 8 9 10 10 10 11 11 11 11 11 11 12 12 12 11 11 12 12 10 11 13 13 12 10 12 12 11 12 12 12 12 10 11 13 12 14 15 10 3 5 6 3 6 9 10 9 8 8 9 8 7 9 9 9
6 6 4 7 8 9 8 7 7 7 6 6 6 6 6 5 5 5 5 7 6 6 7 6 6 8 8 8 8 8 8 9 10 11 11 10 10 11 11 11 11 11 12 12 12 11 12 13 12 11 12 13 13 12 12 13 12 13 13 12 12 11 12 12 11 13 13 14 12 5 5 7 4 6 9 11 10 8 6 7 6 8 8 7 7
5 3 5 8 8 8 7 7 7 7 6 6 6 5 6 6 5 6 5 5 6 7 6 7 7 7 8 8 8 8 9 9 10 10 10 10 10 11 11 11 11 11 12 12 12 12 12 13 13 12 13 13 14 13 12 12 12 14 14 13 13 12 12 12 11 12 13 13 10 9 7 6 7 7 8 8 5 10 12 11 10 9 6 6 6
4 3 7 9 8 7 6 5 6 6 5 6 6 6 5 5 5 5 5 5 6 7 7 7 7 6 7 7 8 8 8 9 10 10 10 10 10 11 11 11 11 11 12 12 12 12 13 13 14 13 14 14 13 13 12 13 10 12 12 11 12 12 13 11 10 10 11 11 11 9 7 8 5 1 3 6 6 5 7 10 11 11 8 4 5
6 8 9 10 9 7 7 6 5 6 5 5 6 6 6 6 6 5 5 5 5 6 6 6 7 8 7 7 8 8 8 10 9 9 9 10 10 11 12 12 12 12 12 12 12 12 13 13 13 14 15 17 19 17 16 14 12 12 12 10 13 12 12 10 10 10 10 10 10 7 8 8 7 8 10 11 13 11 9 11 8 7 8 9 8
8 8 9 8 7 7 7 7 7 7 8 9 9 8 7 7 7 7 6 6 6 6 6 6 6 8 8 9 8 8 8 8 10 14 13 11 10 10 10 11 11 12 12 13 13 13 14 13 14 18 19 19 19 20 20 20 20 17 14 10 12 11 12 12 11 10 10 12 12 10 11 12 11 12 11 8 6 8 12 12 13 12 9 8 5
7 7 7 6 6 6 7 8 7 8 8 8 8 9 10 9 9 9 9 8 8 7 6 7 7 7 8 8 9 9 9 9 13 13 15 17 13 11 11 12 12 12 12 13 14 14 13 13 13 15 16 17 18 21 20 21 21 22 24 22 16 13 12 13 13 11 12 12 11 11 13 14 13 13 12 12 13 14 15 14 12 12 11 11 11
7 8 7 7 7 8 8 8 8 8 8 8 8 8 7 7 8 8 8 9 9 8 8 8 8 8 8 8 9 10 10 10 14 15 15 16 15 12 11 11 11 12 12 13 13 13 13 13 13 11 12 13 13 14 17 21 22 23 23 23 23 23 21 16 14 12 13 12 12 14 13 15 13 12 12 12 14 12 12 13 12 12 12 12 11
7 7 7 7 8 8 8 8 8 8 8 7 7 6 6 6 6 6 7 7 6 8 9 9 9 8 8 10 10 10 10 11 12 15 15 17 17 15 11 12 12 13 13 13 14 13 13 13 14 12 11 14 14 13 13 13 17 22 23 24 24 25 24 25 23 16 11 14 15 14 15 13 13 14 15 16 13 14 12 12 11 12 13 14 13
5 5 6 6 6 6 7 7 8 8 8 7 7 6 6 7 7 7 6 6 7 8 7 9 9 9 9 10 11 11 11 10 13 15 15 17 17 15 12 13 13 14 14 14 13 14 14 13 13 14 12 11 11 12 12 12 12 12 13 14 14 17 21 24 24 24 19 15 14 16 13 12 15 14 14 13 15 15 14 15 13 13 14 15 10
5 6 6 5 6 6 7 7 8 8 8 7 7 6 6 7 7 6 6 6 7 8 8 8 8 7 9 9 10 12 10 11 14 15 15 17 17 15 12 11 12 13 13 13 14 15 15 14 14 15 14 12 11 11 11 11 11 12 13 14 13 13 13 14 14 14 15 14 14 16 12 12 13 9 12 14 17 16 17 20 19 16 10 7 7
6 6 7 7 7 7 7 8 8 8 8 7 6 7 6 6 8 7 6 6 6 6 7 6 8 9 8 8 10 12 12 10 13 15 15 16 18 11 10 11 12 13 13 14 14 14 14 14 14 14 15 13 13 15 15 11 11 15 15 14 13 12 13 13 15 16 14 14 13 13 10 10 14 12 15 14 13 9 6 5 6 8 10 10 9
7 7 7 8 8 8 7 8 8 8 8 9 9 8 9 10 9 6 9 9 8 8 8 9 8 9 11 9 9 12 13 11 11 15 14 16 13 9 9 9 11 12 14 14 14 14 14 13 13 13 14 14 14 15 17 16 13 15 14 14 14 12 13 9 13 17 19 19 19 19 17 18 20 18 21 22 16 14 11 11 12 13 12 10 6
8 9 9 9 9 9 9 9 9 10 9 10 11 10 9 8 7 6 8 11 12 10 9 10 10 8 9 11 9 10 14 14 12 13 15 14 12 10 8 9 11 12 13 13 13 13 14 17 15 14 15 15 15 16 17 15 13 14 13 14 16 15 12 6 5 10 17 19 18 17 17 17 21 24 25 26 25 19 17 17 14 12 12 12 12
10 10 11 10 9 9 8 8 8 9 10 9 9 11 10 9 9 8 8 8 10 10 9 9 11 11 8 9 14 13 13 15 15 13 15 15 11 8 9 9 11 12 11 13 13 12 12 13 17 17 16 16 18 17 18 15 13 13 13 13 15 15 11 7 9 9 9 9 10 12 12 16 15 14 17 30 27 19 14 13 13 14 13 11 10
8 8 8 9 8 8 8 9 9 9 11 11 10 9 8 9 9 9 10 8 9 11 10 10 12 13 12 10 10 11 12 13 15 17 15 16 14 9 7 9 11 13 12 12 13 12 11 10 12 17 20 21 21 21 19 19 15 13 12 12 13 16 8 10 12 10 12 12 12 13 13 12 12 11 12 16 17 18 14 12 14 14 13 12 14
8 9 9 9 9 9 8 8 11 11 8 10 11 10 8 9 11 10 10 10 9 10 11 11 11 13 13 11 10 11 10 12 15 18 12 13 15 14 8 11 11 11 12 13 12 13 12 11 9 12 16 18 19 19 20 21 20 15 14 13 13 14 10 8 11 15 11 11 10 10 10 9 9 10 11 12 12 13 11 11 12 12 12 13 13
8 8 8 8 8 8 9 9 7 9 9 9 11 12 9 8 9 10 9 9 11 12 12 11 11 12 13 12 12 12 12 14 12 15 13 13 15 17 11 11 11 10 11 13 13 12 13 12 11 12 14 17 17 18 21 21 22 15 15 20 21 19 12 9 9 9 9 9 8 8 7 8 9 7 9 11 11 12 11 9 11 9 7 10 14
8 8 8 8 8 9 8 9 10 9 10 10 10 12 11 10 10 9 9 10 11 12 12 11 10 12 13 12 11 11 12 12 14 13 13 13 15 16 19 16 13 12 11 14 16 15 12 12 12 15 15 16 17 19 19 22 20 16 22 18 18 20 16 8 7 9 8 8 8 8 7 8 8 8 10 10 10 11 10 8 8 7 6 4 3
8 7 7 8 9 10 10 11 10 9 9 10 10 11 12 11 11 10 8 9 10 11 11 11 10 12 13 14 13 13 11 10 12 16 13 13 16 17 18 20 19 13 11 13 14 13 13 12 12 16 16 16 18 19 18 19 15 19 19 20 18 17 10 8 8 10 8 9 9 8 8 10 10 11 10 10 10 10 9 9 8 8 9 8 8
8 9 9 9 10 11 12 10 9 9 8 8 10 11 12 11 12 12 10 10 10 10 11 11 11 12 13 14 14 14 13 12 12 13 14 14 18 18 17 19 20 20 15 13 14 13 16 21 21 20 19 19 19 19 18 21 24 21 20 18 16 10 9 9 9 9 8 8 8 9 8 9 10 9 8 9 10 9 10 7 9 10 10 10 10
10 10 11 11 11 11 13 12 9 8 9 8 8 9 10 11 11 12 11 10 10 10 11 11 12 12 13 13 14 14 14 14 14 13 9 7 10 15 18 18 18 19 19 17 21 24 25 24 24 23 20 18 14 11 11 11 16 20 20 17 11 10 9 9 10 10 11 11 11 11 10 8 7 6 8 10 11 8 11 11 12 9 10 11 10
11 11 12 12 11 11 12 11 12 12 10 9 9 10 9 9 10 12 11 11 11 10 11 11 12 12 13 13 14 14 14 14 14 14 10 6 6 7 8 10 14 16 13 12 13 14 16 16 13 15 15 18 18 16 15 13 12 12 11 11 10 10 9 10 11 12 11 10 9 8 7 7 6 6 8 10 9 9 11 13 12 8 11 10 11
11 12 13 11 10 10 11 14 14 12 12 11 11 11 10 8 9 12 13 12 11 13 13 13 13 13 13 13 14 14 15 14 15 14 10 10 8 8 9 9 10 10 12 11 10 12 12 13 14 10 10 10 11 9 9 9 10 9 10 9 9 10 11 12 12 11 10 9 8 8 8 7 6 7 9 8 9 7 9 11 13 12 11 12 9
11 11 11 9 10 10 10 10 10 11 12 12 10 10 11 12 12 14 13 10 10 12 14 15 15 13 11 13 14 13 15 17 17 13 14 17 18 16 16 14 12 10 12 15 13 12 11 9 9 8 8 9 9 9 7 7 8 9 10 9 8 8 9 8 9 10 9 9 9 10 9 9 9 8 8 6 6 7 9 11 10 12 10 9 10
10 9 8 9 10 11 11 10 11 11 11 12 13 15 14 17 14 13 16 19 22 23 21 17 17 15 15 15 13 15 16 18 25 32 31 28 28 27 25 26 24 20 21 23 16 13 12 11 10 9 9 9 8 8 8 9 8 7 8 9 9 9 10 9 10 10 9 10 9 10 10 10 10 9 7 7 6 6 9 12 12 12 11 11 8
9 8 9 9 10 11 11 11 10 10 11 11 12 14 16 16 17 20 20 23 27 30 27 28 30 28 21 19 19 28 30 32 34 33 32 33 31 28 27 26 28 27 27 19 14 13 11 11 11 9 10 9 8 8 8 8 8 8 9 9 9 10 10 10 10 9 10 10 10 10 11 12 11 11 12 11 11 7 8 8 9 9 9 11 9
9 10 10 10 11 10 10 11 11 11 11 10 10 12 13 16 19 22 19 15 19 24 29 30 28 25 27 25 21 17 24 29 31 27 27 29 30 28 27 27 28 29 27 25 16 14 11 10 10 11 9 9 9 8 9 8 8 8 8 8 9 9 10 10 10 10 9 11 11 11 11 12 12 13 12 12 12 9 10 9 9 10 9 8 10
11 11 10 10 10 11 10 10 10 10 11 12 12 11 12 12 14 17 21 23 21 19 22 26 29 26 22 21 25 25 27 30 35 31 28 28 29 28 28 31 29 29 29 18 13 13 11 10 10 11 10 10 8 8 8 9 8 8 9 9 9 8 9 9 10 10 10 11 11 11 11 11 11 11 11 12 12 10 10 9 10 9 9 10 10
10 9 10 11 12 10 10 10 10 11 11 11 11 11 12 12 14 15 16 17 20 18 12 13 17 22 24 26 25 25 29 33 33 30 29 27 27 28 28 23 28 30 24 15 12 10 11 10 10 10 10 9 9 8 8 8 8 8 8 9 7 6 8 8 10 10 10 11 11 11 12 11 11 12 12 11 10 10 9 10 11 11 10 10 9
9 11 16 13 10 10 10 10 10 11 11 11 11 12 13 13 12 13 13 16 16 17 17 15 14 16 18 20 27 31 29 29 31 31 29 28 30 30 28 18 16 12 10 10 11 11 10 10 10 10 9 9 9 8 8 8 7 8 8 8 5 6 8 9 9 9 10 10 10 11 11 12 12 12 13 13 12 11 10 11 10 10 11 10 9
9 8 9 10 10 10 10 10 10 11 11 11 11 12 13 13 13 14 13 14 15 17 17 16 15 14 23 25 30 31 30 30 29 29 28 29 27 26 16 14 13 11 10 9 9 10 10 10 10 10 9 8 7 7 7 7 7 7 7 6 6 7 8 9 9 8 9 10 11 12 11 11 11 11 10 10 13 12 11 11 10 9 9 9 9
8 8 8 8 9 10 10 10 10 11 13 14 13 12 12 13 13 12 14 14 14 15 15 16 16 18 17 13 17 25 31 28 27 27 26 24 26 19 13 13 12 11 10 9 8 9 9 9 9 8 7 7 7 6 6 7 6 6 5 6 7 8 7 7 9 9 9 8 10 11 12 11 11 11 12 11 9 9 9 8 8 8 8 10 11
8 8 8 9 10 11 11 11 11 15 13 12 11 12 13 13 13 14 14 14 16 15 15 17 17 16 17 17 16 13 17 24 23 17 15 14 13 10 10 10 11 10 10 8 8 8 8 8 6 7 6 6 7 6 6 5 5 5 5 6 7 8 11 9 11 11 11 9 9 10 10 10 10 10 9 10 11 10 9 9 10 10 10 12 10
7 12 17 18 15 11 11 12 12 11 11 12 11 12 13 14 14 13 13 13 14 14 14 15 15 15 15 14 12 13 15 13 11 12 12 11 10 10 9 9 9 9 8 8 7 7 7 7 4 5 5 6 6 5 4 4 4 5 6 7 7 7 9 8 9 8 10 9 9 8 9 10 9 9 9 10 10 9 10 11 10 11 11 11 8
9 8 10 17 11 12 11 12 12 12 12 12 12 11 12 13 13 14 14 13 13 13 12 13 15 14 13 14 11 11 13 14 12 12 12 11 10 9 8 9 8 8 8 7 6 6 6 5 5 6 6 5 5 4 4 5 5 5 5 6 7 8 9 9 10 9 9 8 9 9 9 10 9 9 8 8 10 10 11 10 10 9 9 9 9
8 9 10 11 13 12 11 11 11 11 11 12 12 12 12 13 13 14 13 13 14 14 14 14 13 14 14 17 25 23 14 12 12 11 10 9 8 7 6 6 6 6 6 7 6 5 5 5 4 4 3 3 3 4 4 5 5 5 6 4 5 7 7 7 8 8 9 9 9 10 9 10 10 10 10 8 8 9 9 9 9 8 8 9 10
9 8 9 8 10 10 10 11 11 13 12 13 12 12 13 13 11 11 13 14 15 15 15 14 13 12 16 27 24 22 13 9 8 6 6 6 5 6 6 6 6 6 6 5 5 4 1 1 1 2 2 2 3 3 4 4 5 5 6 6 6 6 6 7 7 8 9 10 10 10 10 10 9 9 10 10 10 9 10 9 9 9 9 9 9
9 9 9 9 9 9 10 11 11 10 11 11 11 10 12 12 12 12 13 14 14 14 14 14 13 12 13 18 16 14 7 5 5 6 5 5 5 6 6 6 6 6 6 5 5 4 3 4 4 4 4 5 4 3 3 4 5 5 6 6 7 7 7 7 7 7 7 8 9 10 11 10 10 10 9 9 9 10 9 10 9 9 9 9 9
9 9 9 9 10 9 10 10 10 11 10 13 15 14 13 12 11 12 12 13 13 13 13 12 11 11 10 10 9 7 6 6 5 5 6 5 6 6 6 6 7 7 6 6 6 6 5 5 5 5 6 6 5 6 5 4 3 4 7 7 6 6 7 8 8 9 9 9 10 10 9 9 9 10 9 9 10 11 9 9 9 9 9 8 8
8 8 9 9 9 10 10 10 11 12 14 13 11 11 12 11 11 11 11 12 12 12 11 10 9 9 8 8 7 7 6 6 6 6 5 6 6 6 6 6 6 7 6 6 6 6 6 5 6 6 6 6 6 7 7 6 5 5 3 5 8 7 7 7 8 8 9 11 10 10 10 10 11 10 10 9 9 9 9 9 9 9 9 8 8
7 8 9 9 9 10 10 10 11 11 12 11 12 11 11 11 10 10 11 11 11 10 10 9 8 8 7 7 7 6 7 7 6 6 5 6 6 6 6 6 6 6 6 6 6 7 6 6 6 6 6 6 6 6 7 7 7 6 6 6 6 6 6 6 7 8 9 10 10 10 10 9 9 8 9 8 7 8 9 9 9 9 9 9 8
7 6 7 8 9 10 10 11 10 11 11 11 11 11 11 11 11 11 10 12 11 10 9 9 8 8 7 7 7 7 7 6 6 6 7 7 7 6 6 7 6 7 7 7 7 6 7 7 7 6 6 6 7 7 6 6 7 7 7 7 7 8 7 7 7 7 8 8 9 9 8 9 9 8 9 9 8 9 9 9 9 10 8 9 8
6 7 7 8 8 8 9 9 10 12 10 11 11 11 11 11 11 10 10 10 10 9 9 8 8 8 8 8 7 7 7 6 6 6 6 6 6 7 7 7 7 6 6 7 7 7 7 6 7 7 7 8 8 7 6 6 6 7 6 6 6 7 9 9 8 8 7 7 8 10 10 9 9 8 8 9 9 9 9 8 8 8 8 8 7
6 6 7 8 8 8 8 9 10 9 10 10 10 11 11 10 10 9 9 9 9 9 8 8 8 8 8 8 8 7 7 7 7 7 6 7 7 7 7 7 6 6 6 7 7 8 8 8 8 8 7 7 7 7 7 6 6 7 8 8 8 13 12 12 9 9 9 9 7 7 7 9 10 8 9 9 9 8 9 9 8 9 8 8 8
5 6 6 7 8 8 8 8 8 8 9 9 9 9 10 10 9 9 10 9 9 9 8 8 8 8 7 8 8 8 7 7 7 7 7 7 7 7 7 7 8 7 7 7 7 7 7 8 8 8 8 8 8 8 7 7 7 7 6 7 12 14 13 13 11 11 9 7 8 8 7 8 9 8 7 8 9 10 10 10 9 8 10 10 8
6 5 5 6 6 7 7 8 8 8 8 9 9 9 9 9 9 8 9 9 9 9 9 9 8 8 8 7 7 7 7 7 6 6 6 7 7 7 7 7 8 7 7 8 8 7 8 8 8 8 8 8 8 7 7 7 6 7 10 14 14 13 14 12 9 9 12 10 9 10 10 10 12 12 11 9 9 10 9 9 8 9 9 9 8
Wind_Direction
7 2 348 274 220 255 265 259 258 244 250 241 249 256 258 253 252 254 272 247 232 240 234 238 239 238 243 240 240 241 240 241 234 233 236 243 243 244 244 237 239 242 240 242 235 239 240 240 237 233 228 231 230 228 224 223 222 226 224 223 226 217 217 226 240 256 250 122 195 190 174 157 193 193 195 195 191 193 197 200 185 187 190 189 191
352 340 335 334 356 312 294 289 300 323 313 303 278 279 273 265 263 276 252 261 231 247 246 245 240 242 242 246 244 242 243 243 235 228 237 243 245 242 245 240 243 246 241 245 239 236 238 241 241 238 230 234 232 231 224 226 223 225 226 221 226 223 210 223 240 247 262 192 235 134 174 177 200 182 194 188 196 183 194 196 195 188 185 178 179
337 341 344 346 350 344 331 343 350 348 345 319 306 288 282 274 270 264 265 270 257 241 253 247 241 240 242 244 246 243 240 239 233 230 236 240 244 244 240 240 241 244 242 242 241 240 243 242 244 239 234 237 235 234 228 228 224 226 228 219 227 224 215 217 229 244 251 257 199 196 178 188 199 177 190 192 186 183 185 190 189 190 184 178 176
346 348 335 329 358 12 5 352 357 352 339 319 307 300 294 289 281 265 269 274 269 258 245 251 246 242 246 251 249 249 246 243 239 233 239 239 244 246 242 241 243 244 245 246 241 235 239 245 245 238 236 239 239 235 234 229 228 229 231 225 225 228 220 219 225 235 249 259 221 200 176 174 206 178 183 183 181 187 190 184 179 185 175 173 157
334 322 306 8 24 25 8 358 358 346 329 314 299 295 292 291 287 272 278 273 265 268 264 241 248 249 249 251 253 249 247 243 243 243 242 242 245 247 247 245 244 244 245 245 244 240 239 240 246 238 236 240 243 237 237 231 230 230 231 227 227 229 224 223 226 227 241 246 250 163 172 186 174 180 174 171 179 181 180 182 177 169 159 154 166
304 301 323 42 34 25 9 3 359 340 325 316 304 300 297 289 285 276 260 270 274 263 261 257 240 250 250 254 253 256 252 244 243 247 247 245 246 247 250 250 249 248 248 247 245 241 242 243 243 238 238 238 244 241 236 236 232 231 232 230 228 226 227 226 222 228 231 242 243 220 179 178 166 191 185 177 171 159 167 177 170 181 163 168 177
294 274 28 53 45 27 8 360 347 337 331 317 309 308 302 294 289 284 271 263 275 277 264 260 254 250 257 258 256 255 256 251 250 250 252 251 250 252 253 252 251 250 251 250 249 247 245 246 244 238 239 240 243 244 239 238 233 234 232 231 230 227 231 228 222 225 227 234 237 219 200 201 181 174 186 184 178 177 173 173 184 191 196 164 148
258 6 43 44 41 21 7 340 338 329 320 318 317 314 309 304 294 284 278 274 267 268 274 274 272 258 261 259 259 256 256 258 255 254 254 253 254 255 253 256 257 256 255 252 249 249 247 247 246 242 238 239 239 244 238 243 237 240 235 229 232 227 232 229 223 222 226 228 228 218 203 190 182 118 118 155 167 198 192 168 172 178 185 188 164
20 30 33 35 18 2 354 355 338 340 330 329 336 333 327 315 310 301 289 279 268 268 270 275 283 282 270 259 262 254 254 255 255 255 259 258 252 257 257 256 257 260 260 257 253 249 250 247 248 247 242 241 236 235 234 232 236 243 238 221 229 227 230 228 223 220 223 222 229 208 202 204 191 162 177 186 193 183 165 183 183 161 164 173 195
28 26 31 19 2 357 353 353 356 349 356 353 349 341 336 335 328 324 315 296 289 283 284 277 270 273 281 278 268 262 258 257 257 254 251 257 261 260 263 261 259 260 262 264 260 253 252 251 249 246 245 244 241 240 240 238 237 239 245 226 226 227 227 227 223 218 217 220 220 203 206 212 200 192 186 188 154 153 177 186 186 180 161 179 172
31 31 24 6 357 352 359 357 351 357 348 341 340 343 339 337 335 330 328 324 315 309 295 294 284 275 272 277 280 273 267 264 263 261 260 256 256 263 262 265 263 260 261 261 264 263 257 253 254 250 246 245 244 243 243 242 242 243 245 242 233 223 225 225 227 215 215 221 218 209 214 216 205 197 198 186 185 185 183 185 180 168 171 164 184
19 17 7 1 3 1 356 349 351 346 344 339 334 327 324 324 325 323 322 322 321 322 312 297 296 291 285 279 273 271 269 266 267 268 264 263 257 258 262 263 264 262 260 261 263 265 263 261 256 252 247 243 243 242 241 241 242 243 244 243 240 234 225 221 224 220 215 220 220 217 212 215 204 189 195 181 191 190 188 182 179 168 173 187 186
8 10 2 359 358 353 348 346 339 336 336 328 320 320 316 313 311 314 311 301 304 302 295 298 289 286 277 277 274 268 266 265 263 264 263 262 260 256 260 258 261 263 261 260 262 263 263 264 265 256 252 244 239 241 243 243 240 241 245 245 244 240 236 232 228 225 214 217 222 222 214 208 199 204 192 192 181 184 178 184 182 180 187 189 195
11 3 352 353 346 340 340 335 334 328 324 323 324 321 323 318 312 303 300 304 298 295 291 284 282 277 272 271 273 271 264 263 257 259 259 259 259 256 255 257 257 260 261 260 261 262 260 261 264 265 257 246 242 238 239 241 244 243 244 244 245 245 241 238 234 229 223 222 222 228 220 195 209 201 191 176 177 184 180 187 181 182 190 195 183
7 1 353 347 344 343 344 338 333 330 327 327 326 323 318 313 311 308 304 299 298 295 295 293 282 274 273 270 271 273 267 258 259 258 257 259 260 257 256 256 257 259 259 257 256 258 259 258 258 262 264 253 243 234 237 238 239 243 243 244 243 242 239 236 232 229 226 226 226 231 223 206 211 184 178 186 191 188 186 185 183 182 165 91 62
358 354 350 351 350 345 342 336 330 327 326 325 324 323 320 312 313 313 303 295 281 273 275 262 275 283 275 271 277 280 280 267 263 264 259 259 260 258 255 254 257 259 260 258 256 256 256 253 256 258 259 257 248 235 232 234 238 244 244 246 248 244 243 236 228 228 226 225 226 226 222 204 197 183 181 181 184 174 148 97 118 134 147 162 163
357 351 346 344 345 341 339 333 328 329 329 329 330 331 331 328 324 322 317 313 310 308 304 300 297 292 292 284 275 282 286 279 262 262 259 257 259 257 257 257 259 261 260 262 259 257 255 251 251 256 257 256 247 238 236 230 239 242 244 248 249 248 248 238 227 229 230 228 227 225 215 204 197 182 178 175 174 165 154 154 176 167 164 163 147
356 350 344 342 340 340 337 337 333 333 333 333 329 325 322 314 311 320 314 313 312 310 308 304 298 287 283 286 277 280 287 288 275 269 270 261 253 259 259 261 263 263 267 265 264 261 257 252 247 252 255 256 251 240 238 232 238 240 241 245 250 250 249 223 209 225 225 226 220 208 199 195 192 187 181 181 177 168 171 184 173 159 173 169 168
355 347 340 336 335 335 333 334 332 327 326 321 322 318 318 315 309 310 303 300 297 301 303 301 300 296 284 278 286 282 283 289 287 277 271 269 260 255 261 262 268 267 269 272 269 264 262 257 247 243 248 254 251 244 239 233 237 238 238 241 247 249 245 195 211 209 206 206 211 208 206 194 189 183 187 186 179 175 183 170 161 173 172 173 161
339 332 329 329 330 332 332 331 327 328 323 318 316 312 309 311 310 311 306 304 303 305 306 302 300 297 298 292 287 284 286 289 289 284 276 274 263 254 253 259 260 268 270 271 277 275 268 262 257 250 246 248 248 246 243 236 235 236 236 238 243 249 234 210 212 205 209 204 206 203 201 191 187 182 180 181 175 179 181 173 173 174 175 166 168
338 333 332 330 330 331 331 332 325 321 317 311 309 307 309 306 308 309 306 305 301 299 298 298 296 294 294 294 288 285 278 281 286 287 271 259 260 257 252 251 258 263 272 275 273 276 277 271 266 255 249 247 246 243 240 239 234 232 232 237 233 243 233 218 213 207 209 208 205 202 196 186 181 178 178 177 175 179 180 175 183 184 171 168 171
334 331 329 329 325 326 325 321 318 312 312 312 310 306 306 300 295 297 296 294 294 292 294 294 294 293 294 294 292 288 284 274 277 283 274 260 248 251 254 253 250 263 267 271 271 268 268 273 273 263 254 247 245 241 238 238 235 232 236 239 241 240 236 218 211 204 206 203 196 194 186 173 174 170 175 178 175 175 176 173 183 184 182 172 171
327 327 325 324 325 324 324 325 323 321 315 312 307 304 306 305 296 291 289 293 293 294 293 293 293 292 292 291 289 285 284 284 276 279 272 262 256 248 247 255 255 257 258 264 266 270 272 271 271 270 264 254 246 244 238 233 234 235 239 236 233 233 230 214 203 203 198 194 191 185 181 178 172 174 177 175 171 171 169 163 162 158 134 85 46
317 320 324 328 330 330 328 324 318 313 310 310 307 302 305 306 303 297 297 294 297 298 297 298 297 294 295 297 295 293 290 285 284 279 279 268 266 260 255 255 255 258 255 262 266 269 273 270 270 271 266 258 252 251 236 233 236 236 233 232 225 226 221 213 203 201 196 196 197 193 188 188 184 183 182 172 164 155 147 144 131 119 97 74 65
322 327 333 335 334 327 321 316 312 309 308 310 308 309 307 310 306 304 304 299 293 292 292 294 293 291 293 291 293 294 294 293 289 284 280 276 276 274 264 262 261 260 264 266 268 269 269 270 271 270 268 262 254 249 239 237 237 235 233 230 223 220 217 204 199 191 195 196 193 196 194 196 191 183 166 151 141 129 121 99 99 94 92 89 81
330 334 334 330 327 323 317 315 310 307 309 307 302 296 299 303 301 300 298 293 292 289 291 293 292 291 289 290 291 292 295 295 292 291 290 267 268 279 277 274 270 266 263 268 272 275 275 275 275 274 270 264 256 246 242 240 237 235 234 228 219 214 208 202 194 195 199 199 195 195 189 176 179 165 147 142 142 139 134 128 119 117 122 116 97
334 331 329 326 322 321 318 319 321 320 321 316 308 302 297 295 294 292 289 291 293 290 289 288 287 287 287 290 292 293 293 291 292 292 298 290 271 270 269 272 270 271 273 270 271 273 274 273 271 268 265 260 252 243 240 239 237 234 232 225 218 209 205 200 198 198 202 196 195 184 170 160 135 126 150 153 147 143 142 136 132 131 123 120 111
335 331 326 320 320 322 321 320 320 314 312 314 309 306 299 291 288 286 292 293 296 294 292 289 286 284 289 291 290 290 289 288 286 288 301 297 294 283 279 274 277 278 275 273 268 271 274 276 273 267 263 259 251 243 238 235 231 228 222 220 214 209 207 200 198 204 200 189 182 169 154 145 140 148 151 152 145 133 136 136 138 132 129 128 114
329 320 317 320 320 321 315 313 310 308 305 306 296 289 294 296 290 283 271 265 268 280 286 285 280 278 278 279 284 286 287 285 280 289 289 289 292 294 294 290 285 273 265 265 272 270 267 266 266 262 250 249 244 240 230 225 227 222 220 218 214 209 204 191 193 197 192 180 180 168 159 148 153 152 150 127 124 132 141 135 136 129 134 135 133
319 317 320 320 317 315 312 307 304 300 298 300 303 300 283 275 271 276 288 288 277 267 266 270 275 284 283 272 267 272 275 280 290 292 291 289 287 284 280 279 276 277 279 278 271 271 268 267 258 255 253 243 234 228 225 223 219 216 218 214 213 212 206 199 195 191 181 183 172 162 159 156 150 152 138 131 120 127 149 145 145 142 139 146 133
315 314 317 314 312 309 306 303 301 299 295 298 300 301 305 304 289 279 273 281 286 289 283 275 275 274 274 281 278 277 278 281 284 287 289 290 289 284 280 278 279 280 280 281 271 260 260 256 256 250 248 242 233 230 228 227 218 217 218 215 217 210 205 197 191 179 177 174 167 161 161 161 155 152 153 153 148 143 142 139 137 144 144 145 137
320 314 310 305 305 301 298 299 299 298 298 296 297 302 304 306 306 303 296 281 282 288 292 291 285 279 277 277 281 285 286 287 287 285 285 286 286 284 281 279 279 281 282 279 271 261 256 252 251 253 247 239 232 233 234 227 225 220 220 221 217 209 199 197 181 172 168 168 164 164 164 164 160 155 153 155 153 149 145 148 152 149 143 141 151
313 308 306 304 302 301 300 297 298 298 300 303 303 302 299 297 299 306 309 305 295 283 282 287 291 289 283 284 288 290 291 291 291 289 283 281 282 283 283 282 281 282 283 276 260 261 257 253 248 249 244 241 237 230 232 227 225 223 221 225 220 206 200 185 164 170 168 164 160 162 162 161 158 152 150 153 155 147 150 151 154 148 145 146 150
308 304 307 308 306 303 303 300 299 297 292 289 286 291 291 292 292 292 298 306 315 311 290 275 283 292 295 295 294 294 295 294 294 290 286 285 284 284 283 282 281 281 279 270 259 253 256 252 248 245 244 240 236 230 228 227 223 225 224 227 224 192 181 162 166 166 160 162 162 159 159 160 154 149 153 156 153 145 145 155 153 155 159 155 145
306 302 302 300 294 295 295 293 289 288 289 289 289 289 289 287 284 286 288 294 298 298 304 304 296 285 290 298 302 300 296 293 292 292 291 289 288 288 288 285 283 280 266 249 253 254 255 255 251 246 240 236 230 223 226 224 225 223 223 221 203 181 164 165 170 164 161 159 157 159 157 155 157 158 154 149 149 154 158 155 159 159 158 152 148
304 301 299 297 290 286 285 286 285 281 282 280 281 282 284 286 289 287 284 284 284 289 294 293 298 296 299 301 299 298 296 295 294 292 288 287 288 290 286 281 281 272 263 249 244 250 252 253 252 248 241 233 225 220 220 225 225 223 220 199 181 171 173 164 157 157 161 157 156 155 153 155 156 151 145 147 156 156 153 156 154 154 148 147 147
300 296 294 290 288 286 286 284 283 282 284 286 289 289 288 288 286 286 288 286 287 288 289 295 304 305 300 290 287 296 297 296 296 295 291 289 288 287 279 281 277 274 262 254 251 251 255 252 249 249 237 227 213 213 213 222 223 222 200 180 169 166 171 161 153 149 152 153 152 152 153 153 149 148 148 149 149 146 144 137 137 138 142 140 138
290 289 289 293 294 295 293 290 289 292 291 290 289 289 292 290 290 291 291 291 292 295 298 299 300 300 303 304 303 299 300 301 298 289 283 283 285 280 277 274 273 268 268 262 258 255 257 257 245 236 221 209 210 204 207 205 204 192 167 170 170 168 159 159 156 147 145 146 150 153 146 142 143 144 142 142 148 145 140 141 144 146 142 148 149
292 300 302 303 299 296 294 295 294 294 290 289 286 290 289 291 293 291 290 290 291 291 291 293 294 296 298 300 301 300 300 301 305 303 300 294 286 284 281 279 275 273 271 270 264 258 254 253 226 213 209 205 201 190 171 174 173 171 168 166 162 153 151 144 148 145 144 146 146 147 140 137 137 141 140 139 139 141 141 146 147 148 153 161 158
308 307 305 307 301 297 295 295 294 291 289 289 288 290 290 292 291 290 288 288 288 289 290 293 295 295 295 296 295 304 304 303 302 301 299 298 295 293 287 280 277 272 276 274 270 254 249 230 210 201 202 197 180 168 161 153 164 159 155 158 154 155 156 154 151 149 146 141 140 138 134 132 131 129 132 135 139 143 143 149 150 149 148 144 134
301 302 299 300 298 299 295 291 286 285 289 291 291 290 287 286 283 281 283 286 291 295 294 292 292 292 293 298 304 307 305 299 298 298 304 311 315 315 318 317 316 304 290 275 259 239 225 217 201 199 171 162 152 144 145 147 145 152 152 146 145 143 144 142 142 140 137 136 134 130 127 125 130 135 137 133 126 131 135 136 140 142 137 129 127
300 299 300 298 301 297 293 292 290 292 290 288 283 280 277 276 277 282 293 296 296 294 294 295 294 297 303 309 312 317 315 308 317 323 328 335 342 344 340 339 340 338 335 331 320 300 303 35 39 43 61 87 104 115 111 127 140 141 144 139 134 122 120 125 128 133 134 134 131 130 129 130 129 121 124 131 136 135 140 144 141 135 131 130 127
301 300 303 302 301 299 298 296 294 288 284 280 271 276 284 292 294 295 293 292 295 297 300 302 304 307 311 318 326 329 324 324 332 331 337 345 345 344 344 341 334 337 341 345 350 7 29 49 47 42 44 45 42 64 106 136 143 133 132 133 133 130 121 116 114 117 114 117 123 120 123 125 124 127 129 132 137 140 140 134 132 129 127 122 125
310 308 305 306 304 301 299 299 300 302 300 304 305 304 301 297 297 297 299 300 301 303 302 303 308 316 316 324 330 330 331 336 340 346 347 349 349 348 344 343 340 345 349 350 3 14 34 45 47 47 45 41 38 45 40 43 72 118 127 122 118 119 125 129 131 135 132 124 123 124 123 119 120 125 132 142 141 134 129 126 121 123 125 126 129
313 314 315 311 313 312 311 312 313 312 313 311 310 308 310 308 304 304 306 305 307 308 308 312 318 317 318 323 330 332 336 340 344 351 354 351 346 346 343 342 352 349 352 357 1 17 35 44 53 56 53 41 42 45 46 38 47 56 59 114 129 134 138 136 134 131 128 127 126 125 125 128 135 138 138 135 128 125 124 126 124 125 129 134 139
319 316 316 317 317 317 318 316 319 318 317 317 315 315 314 311 309 314 315 315 315 316 317 320 322 322 323 325 329 337 341 342 345 347 348 350 346 345 349 345 350 356 359 356 5 27 35 44 52 59 59 56 49 48 52 47 47 52 62 64 89 99 105 108 113 118 124 125 127 130 130 128 127 131 127 126 120 120 119 125 132 138 139 141 143
315 313 319 318 321 320 321 322 320 319 320 319 317 317 316 316 316 319 322 324 322 321 325 326 328 328 330 333 334 336 338 343 346 347 348 348 349 348 354 352 351 2 11 11 9 21 36 46 53 53 53 59 59 49 50 51 56 56 60 77 89 97 104 109 107 113 116 120 124 126 124 125 124 123 119 116 116 121 124 133 139 140 138 141 140
319 320 321 322 321 322 322 324 324 327 323 321 320 317 316 317 319 322 325 325 326 328 330 333 335 335 334 337 339 339 341 341 343 348 352 354 358 356 356 357 357 0 6 7 9 13 20 29 37 47 52 58 63 60 47 50 54 65 67 70 81 92 95 97 103 99 106 111 113 117 119 119 121 121 122 121 124 128 129 133 129 130 132 132 137
322 328 326 329 328 328 327 328 330 328 325 323 320 318 317 317 320 323 326 325 326 328 332 337 337 339 341 343 342 344 342 344 347 354 358 1 360 1 2 4 7 8 12 20 14 12 10 19 29 37 34 43 52 63 60 51 63 68 76 78 72 77 82 89 86 80 96 98 93 98 100 109 116 116 117 118 123 123 125 130 128 123 123 129 133
324 323 327 327 328 324 327 326 324 324 328 326 324 320 320 320 323 327 328 329 329 332 338 338 339 342 341 344 348 348 348 350 353 355 359 359 360 0 6 6 11 14 17 19 13 18 23 22 28 32 37 46 55 58 65 64 68 72 64 74 83 84 84 83 86 95 99 93 101 100 93 102 107 113 112 117 118 121 122 127 127 130 122 127 135
319 322 321 323 322 324 328 330 329 328 326 327 329 329 329 328 327 328 331 332 336 337 339 341 341 345 347 346 346 348 351 355 355 358 360 5 6 7 12 17 16 14 20 24 28 25 24 26 32 34 41 41 44 46 51 56 53 62 78 79 78 82 88 87 86 80 91 100 106 103 102 113 114 100 107 114 120 119 129 126 126 124 130 133 132